Preview of NWS' New Version of Forecast
This preview is not operational and should not be used for support decisions.

Regional Weather Roundup (RWR)

Issued by National Weather Service (NWS)

                            
000
ASUS46 KPQR 180210
RWROR 

OREGON REGIONAL WEATHER ROUNDUP
NATIONAL WEATHER SERVICE PORTLAND OR
700 PM PDT WED APR 17 2019

NOTE: "FAIR" INDICATES FEW OR NO CLOUDS BELOW 12,000 FEET WITH
NO SIGNIFICANT WEATHER AND/OR OBSTRUCTIONS TO VISIBILITY.

ORZ001>013-180300-
NORTHWEST OREGON

  
CITY           SKY/WX    TMP DP  RH WIND       PRES   REMARKS
ASTORIA        CLOUDY    53  48  83 S5        30.30S                  
TILLAMOOK      CLOUDY    55  50  82 CALM      30.32F                  
NEWPORT        MOSUNNY   54  48  82 W3        30.32F                  
PORTLAND       PTCLDY    65  45  48 NW5       30.29F                  
VANCOUVER WA   CLEAR     65  43  44 VRB5      30.28F                  
SCAPPOOSE      CLEAR     65  46  50 NE6       30.28F                  
HILLSBORO      CLEAR     63  46  54 N5        30.28F                  
AURORA         CLEAR     64  48  56 CALM      30.30S                  
MCMINNVILLE    CLEAR     63  48  58 CALM      30.28F                  
SALEM          CLEAR     64  47  53 W6        30.27S                  
CORVALLIS      PTCLDY    64  49  57 CALM      30.28F                  
EUGENE         MOCLDY    63  52  67 NE7       30.27F                  
$$

ORZ021-028-180300-
SOUTHWEST OREGON

  
CITY           SKY/WX    TMP DP  RH WIND       PRES   REMARKS
NORTH BEND     MOSUNNY   56  50  80 N8        30.31S                  
BROOKINGS      SUNNY     57  50  77 S6        30.25S                  
ROSEBURG       CLEAR     72  43  35 N6        30.24S                  
SEXTON SUMMIT  CLEAR     58  43  57 CALM      30.30S                  
GRANTS PASS    FAIR      73  43  33 CALM      30.24F                  
MEDFORD        CLEAR     72  41  32 CALM      30.22F                  
$$

ORZ014>016-041-180300-
COLUMBIA GORGE

  
CITY           SKY/WX    TMP DP  RH WIND       PRES   REMARKS
TROUTDALE      CLEAR     65  44  46 CALM      30.29S                  
HOOD RIVER     CLEAR     61  43  51 MISG      30.24S                  
THE DALLES     CLEAR     63  42  46 W14       30.22S                  
$$

ORZ029>031-041-044-049-050-061>064-502-503-505>511-180300-
EASTERN OREGON

  
CITY           SKY/WX    TMP DP  RH WIND       PRES   REMARKS
MADRAS         CLEAR     63  36  36 N5        30.25S                  
REDMOND        CLEAR     65  29  25 NW7       30.24S                  
BEND           CLEAR     64  27  24 N7        30.25S                  
PRINEVILLE     CLEAR     63  30  29 W7        30.25S                  
KLAMATH FALLS  CLEAR     63  38  39 NW9       30.26S                  
LAKEVIEW       CLEAR     61  43  51 SW7       30.28S                  
HERMISTON      CLEAR     66  39  37 W8        30.20S                  
PENDLETON      CLEAR     61  38  42 W10       30.22S                  
JOHN DAY       PTCLDY    60  38  44 CALM      30.27S                  
MEACHAM        CLEAR     51  38  60 VRB3      30.26S                  
LA GRANDE      CLEAR     56  41  57 SE7       30.25F                  
BAKER CITY     CLEAR     59  38  45 W5        30.26S                  
BURNS          CLEAR     62  36  37 NW3       30.27R                  
ROME             N/A     60  41  49 E7        30.26R                  
ONTARIO        CLEAR     66  37  34 N6        30.24S                  
$$